Time,TemperatureF,DewpointF,PressureIn,WindDirection,WindDirectionDegrees,WindSpeedMPH,WindSpeedGustMPH,Humidity,HourlyPrecipIn,Conditions,Clouds,dailyrainin,SoftwareType,DateUTC
2013-01-08 00:04:00,24.0,14.0,-100.00,South,180,5.0,7.0,65,-99.99,,,-99.99,,2013-01-08 05:04:00,
2013-01-08 00:12:00,24.0,14.0,-100.00,South,175,1.0,5.0,65,-99.99,,,-99.99,,2013-01-08 05:12:00,
2013-01-08 00:20:00,24.0,15.0,-100.00,West,265,2.0,3.0,66,-99.99,,,-99.99,,2013-01-08 05:20:00,
2013-01-08 00:22:00,24.0,14.0,-100.00,South,175,1.0,5.0,65,-99.99,,,-99.99,,2013-01-08 05:22:00,
2013-01-08 00:33:00,24.0,14.0,-100.00,SW,215,2.0,6.0,66,-99.99,,,-99.99,,2013-01-08 05:33:00,
2013-01-08 00:43:00,23.0,14.0,-100.00,SSW,200,1.0,5.0,68,-99.99,,,-99.99,,2013-01-08 05:43:00,
2013-01-08 00:53:00,23.0,14.0,-100.00,SW,230,2.0,3.0,69,-99.99,,,-99.99,,2013-01-08 05:53:00,
2013-01-08 01:03:00,24.0,15.0,-100.00,West,265,2.0,3.0,66,-99.99,,,-99.99,,2013-01-08 06:03:00,
2013-01-08 01:12:00,24.0,15.0,-100.00,West,265,2.0,3.0,66,-99.99,,,-99.99,,2013-01-08 06:12:00,
2013-01-08 02:32:00,22.0,14.0,-100.00,SW,220,2.0,6.0,71,-99.99,,,-99.99,,2013-01-08 07:32:00,
2013-01-08 02:42:00,22.0,15.0,-100.00,SW,230,2.0,8.0,72,-99.99,,,-99.99,,2013-01-08 07:42:00,
2013-01-08 02:52:00,23.0,15.0,-100.00,SW,225,1.0,7.0,70,-99.99,,,-99.99,,2013-01-08 07:52:00,
2013-01-08 03:02:00,23.0,15.0,-100.00,SW,225,2.0,7.0,71,-99.99,,,-99.99,,2013-01-08 08:02:00,
2013-01-08 03:12:00,23.0,15.0,-100.00,SW,230,2.0,6.0,71,-99.99,,,-99.99,,2013-01-08 08:12:00,
2013-01-08 03:22:00,23.0,16.0,-100.00,WSW,240,1.0,6.0,72,-99.99,,,-99.99,,2013-01-08 08:22:00,
2013-01-08 03:32:00,24.0,16.0,-100.00,SW,225,2.0,6.0,71,-99.99,,,-99.99,,2013-01-08 08:32:00,
2013-01-08 03:42:00,25.0,16.0,-100.00,SW,220,3.0,8.0,70,-99.99,,,-99.99,,2013-01-08 08:42:00,
2013-01-08 03:52:00,24.0,16.0,-100.00,SW,225,2.0,6.0,71,-99.99,,,-99.99,,2013-01-08 08:52:00,
2013-01-08 04:02:00,24.0,16.0,-100.00,SW,225,2.0,7.0,72,-99.99,,,-99.99,,2013-01-08 09:02:00,
2013-01-08 07:12:00,31.0,24.0,-100.00,SW,230,5.0,9.0,75,-99.99,,,-99.99,,2013-01-08 12:12:00,
2013-01-08 07:22:00,31.0,24.0,-100.00,SW,225,6.0,13.0,76,-99.99,,,-99.99,,2013-01-08 12:22:00,
2013-01-08 07:33:00,31.0,24.0,-100.00,SW,225,6.0,12.0,76,-99.99,,,-99.99,,2013-01-08 12:33:00,
2013-01-08 07:43:00,31.0,24.0,-100.00,SW,225,6.0,14.0,76,-99.99,,,-99.99,,2013-01-08 12:43:00,
2013-01-08 07:53:00,31.0,24.0,-100.00,SW,230,6.0,13.0,75,-99.99,,,-99.99,,2013-01-08 12:53:00,
2013-01-08 08:03:00,31.0,24.0,-100.00,SW,230,6.0,14.0,75,-99.99,,,-99.99,,2013-01-08 13:03:00,
2013-01-08 08:13:00,31.0,24.0,-100.00,SW,230,5.0,17.0,74,-99.99,,,-99.99,,2013-01-08 13:13:00,
2013-01-08 10:12:00,36.0,25.0,-100.00,SW,225,6.0,16.0,65,-99.99,,,-99.99,,2013-01-08 15:12:00,
2013-01-08 10:23:00,36.0,25.0,-100.00,SW,235,6.0,15.0,64,-99.99,,,-99.99,,2013-01-08 15:23:00,
2013-01-08 10:33:00,36.0,25.0,-100.00,WSW,255,7.0,16.0,64,-99.99,,,-99.99,,2013-01-08 15:33:00,
2013-01-08 10:43:00,37.0,26.0,-100.00,SW,230,6.0,17.0,63,-99.99,,,-99.99,,2013-01-08 15:43:00,
2013-01-08 10:53:00,37.0,26.0,-100.00,West,265,7.0,14.0,62,-99.99,,,-99.99,,2013-01-08 15:53:00,
2013-01-08 11:00:00,40.0,26.0,-100.00,WSW,255,6.0,14.0,57,-99.99,,,-99.99,,2013-01-08 16:00:00,
2013-01-08 11:03:00,38.0,26.0,-100.00,West,270,9.0,17.0,61,-99.99,,,-99.99,,2013-01-08 16:03:00,
2013-01-08 11:13:00,38.0,26.0,-100.00,SW,230,7.0,18.0,60,-99.99,,,-99.99,,2013-01-08 16:13:00,
2013-01-08 11:23:00,38.0,26.0,-100.00,SW,230,7.0,18.0,60,-99.99,,,-99.99,,2013-01-08 16:23:00,
2013-01-08 11:34:00,39.0,26.0,-100.00,West,275,9.0,16.0,58,-99.99,,,-99.99,,2013-01-08 16:34:00,
2013-01-08 11:43:00,40.0,26.0,-100.00,WSW,255,6.0,14.0,57,-99.99,,,-99.99,,2013-01-08 16:43:00,
2013-01-08 11:52:00,40.0,26.0,-100.00,WSW,255,6.0,14.0,57,-99.99,,,-99.99,,2013-01-08 16:52:00,
2013-01-08 12:13:00,42.0,26.0,-100.00,West,280,12.0,20.0,52,-99.99,,,-99.99,,2013-01-08 17:13:00,
2013-01-08 12:23:00,42.0,26.0,-100.00,West,280,12.0,20.0,52,-99.99,,,-99.99,,2013-01-08 17:23:00,
2013-01-08 12:34:00,42.0,26.0,-100.00,West,265,8.0,17.0,52,-99.99,,,-99.99,,2013-01-08 17:34:00,
2013-01-08 12:43:00,42.0,26.0,-100.00,WSW,245,7.0,16.0,52,-99.99,,,-99.99,,2013-01-08 17:43:00,
2013-01-08 12:53:00,42.0,26.0,-100.00,West,265,7.0,21.0,52,-99.99,,,-99.99,,2013-01-08 17:53:00,
2013-01-08 13:04:00,43.0,26.0,-100.00,WSW,245,8.0,22.0,51,-99.99,,,-99.99,,2013-01-08 18:04:00,
2013-01-08 13:13:00,43.0,26.0,-100.00,WSW,245,8.0,22.0,51,-99.99,,,-99.99,,2013-01-08 18:13:00,
2013-01-08 13:23:00,42.0,25.0,-100.00,West,275,9.0,20.0,51,-99.99,,,-99.99,,2013-01-08 18:23:00,
2013-01-08 13:33:00,43.0,26.0,-100.00,West,280,10.0,18.0,51,-99.99,,,-99.99,,2013-01-08 18:33:00,
2013-01-08 13:43:00,43.0,26.0,-100.00,West,275,6.0,16.0,51,-99.99,,,-99.99,,2013-01-08 18:43:00,
2013-01-08 13:53:00,43.0,26.0,-100.00,SW,235,7.0,17.0,51,-99.99,,,-99.99,,2013-01-08 18:53:00,
2013-01-08 14:03:00,43.0,26.0,-100.00,West,280,7.0,21.0,51,-99.99,,,-99.99,,2013-01-08 19:03:00,
2013-01-08 14:12:00,43.0,26.0,-100.00,West,270,8.0,16.0,51,-99.99,,,-99.99,,2013-01-08 19:12:00,
2013-01-08 14:23:00,43.0,26.0,-100.00,West,260,7.0,14.0,51,-99.99,,,-99.99,,2013-01-08 19:23:00,
2013-01-08 14:33:00,43.0,26.0,-100.00,WNW,285,8.0,17.0,51,-99.99,,,-99.99,,2013-01-08 19:33:00,
2013-01-08 15:43:00,44.0,26.0,-100.00,WSW,255,7.0,16.0,50,-99.99,,,-99.99,,2013-01-08 20:43:00,
2013-01-08 15:53:00,43.0,26.0,-100.00,West,270,7.0,14.0,50,-99.99,,,-99.99,,2013-01-08 20:53:00,
2013-01-08 16:03:00,43.0,26.0,-100.00,West,270,6.0,14.0,51,-99.99,,,-99.99,,2013-01-08 21:03:00,
2013-01-08 16:13:00,43.0,26.0,-100.00,West,280,5.0,9.0,51,-99.99,,,-99.99,,2013-01-08 21:13:00,
2013-01-08 16:23:00,43.0,26.0,-100.00,West,270,6.0,12.0,51,-99.99,,,-99.99,,2013-01-08 21:23:00,
2013-01-08 16:33:00,43.0,26.0,-100.00,West,280,6.0,10.0,51,-99.99,,,-99.99,,2013-01-08 21:33:00,
2013-01-08 16:43:00,43.0,26.0,-100.00,WNW,290,5.0,10.0,50,-99.99,,,-99.99,,2013-01-08 21:43:00,
2013-01-08 16:53:00,42.0,26.0,-100.00,West,280,5.0,9.0,52,-99.99,,,-99.99,,2013-01-08 21:53:00,
2013-01-08 17:04:00,42.0,26.0,-100.00,West,280,5.0,9.0,52,-99.99,,,-99.99,,2013-01-08 22:04:00,
2013-01-08 18:52:00,38.0,26.0,-100.00,SW,230,2.0,3.0,63,-99.99,,,-99.99,,2013-01-08 23:52:00,
2013-01-08 19:03:00,37.0,26.0,-100.00,SW,230,3.0,3.0,64,-99.99,,,-99.99,,2013-01-09 00:03:00,
2013-01-08 19:13:00,37.0,26.0,-100.00,SW,230,3.0,3.0,64,-99.99,,,-99.99,,2013-01-09 00:13:00,
2013-01-08 19:22:00,37.0,27.0,-100.00,SW,230,3.0,6.0,65,-99.99,,,-99.99,,2013-01-09 00:22:00,
2013-01-08 19:43:00,37.0,27.0,-100.00,SW,230,2.0,5.0,66,-99.99,,,-99.99,,2013-01-09 00:43:00,
2013-01-08 19:52:00,37.0,27.0,-100.00,SW,235,2.0,5.0,66,-99.99,,,-99.99,,2013-01-09 00:52:00,
2013-01-08 20:02:00,37.0,27.0,-100.00,SW,235,1.0,5.0,66,-99.99,,,-99.99,,2013-01-09 01:02:00,
2013-01-08 20:12:00,37.0,27.0,-100.00,SW,235,1.0,5.0,66,-99.99,,,-99.99,,2013-01-09 01:12:00,
2013-01-08 20:22:00,37.0,27.0,-100.00,SW,235,3.0,8.0,66,-99.99,,,-99.99,,2013-01-09 01:22:00,
2013-01-08 20:33:00,37.0,27.0,-100.00,West,265,5.0,8.0,66,-99.99,,,-99.99,,2013-01-09 01:33:00,
2013-01-08 21:00:00,36.0,27.0,-100.00,West,275,3.0,7.0,69,-99.99,,,-99.99,,2013-01-09 02:00:00,
2013-01-08 21:43:00,36.0,27.0,-100.00,West,275,3.0,7.0,69,-99.99,,,-99.99,,2013-01-09 02:43:00,
2013-01-08 21:52:00,36.0,27.0,-100.00,West,275,3.0,7.0,69,-99.99,,,-99.99,,2013-01-09 02:52:00,
2013-01-08 22:12:00,36.0,27.0,-100.00,West,270,5.0,9.0,68,-99.99,,,-99.99,,2013-01-09 03:12:00,
2013-01-08 22:22:00,35.0,26.0,-100.00,WNW,295,5.0,8.0,70,-99.99,,,-99.99,,2013-01-09 03:22:00,
2013-01-08 22:33:00,35.0,26.0,-100.00,WNW,300,6.0,8.0,70,-99.99,,,-99.99,,2013-01-09 03:33:00,
2013-01-08 22:43:00,35.0,26.0,-100.00,WNW,295,3.0,8.0,71,-99.99,,,-99.99,,2013-01-09 03:43:00,
2013-01-08 22:52:00,35.0,26.0,-100.00,WNW,285,5.0,7.0,70,-99.99,,,-99.99,,2013-01-09 03:52:00,
2013-01-08 23:02:00,35.0,26.0,-100.00,WNW,285,5.0,7.0,70,-99.99,,,-99.99,,2013-01-09 04:02:00,
2013-01-08 23:33:00,35.0,26.0,-100.00,West,280,5.0,9.0,68,-99.99,,,-99.99,,2013-01-09 04:33:00,